[[{"header":{"parameterUnit":"m.s-1","parameterCategory":1,"la1":30.2991,"la2":30.254,"lo1":-89.0895,"lo2":-89.0444,"dy":0.0017,"dx":0.0017,"nx":28,"ny":28,"refTime":"2024-08-27T21:00:00:Z","depth":0,"parameterNumber":2,"parameterNumberName":"U-component_of_WINDS"},"data":[0,0,0,0,0,0,0,0,0,0,0,0,0,0,0,0,0,0,0,0,0,0,0,0,0,0,0,0,0,0,0,0,0,0,0,0,0,0,0,0,0,0,0,0,0,0,0,0,0,0,0,0,0,0,0,0,0,0,0.2755,0.2756,0,0.2838,0.2839,0.284,0.2898,0.2899,0.2899,0.29,0.2987,0.2989,0.2991,0,0,0,0,0,0,0,0,0,0,0,0,0,0.265,0.2651,0.2755,0.2756,0.2757,0.2838,0.2839,0.284,0.2898,0.2899,0.2899,0.29,0.2986,0.2989,0.2991,0,0,0,0,0,0,0,0,0,0,0,0,0,0.271,0.2652,0.2755,0.2796,0.28,0.2838,0.2839,0.284,0.2898,0.2899,0.2899,0.29,0.2986,0.2988,0.2991,0.2995,0,0,0.3,0.3001,0,0,0,0,0,0,0,0,0.2707,0.2714,0.2789,0.2793,0.2798,0.2858,0.2834,0.2892,0.2898,0.2861,0.29,0.29,0.2944,0.295,0.2964,0.2999,0.3003,0.3,0.3002,0.3003,0.3004,0,0,0,0,0,0,0,0.2702,0.2711,0.2788,0.279,0.2796,0.2811,0.282,0.2845,0.2898,0.2864,0.2869,0.2878,0.2947,0.2961,0.2967,0.3004,0.3,0.3003,0.3004,0.3005,0.3046,0.3046,0,0,0,0,0,0,0.2692,0.2707,0.2785,0.279,0.2753,0.2812,0.2823,0.2838,0.2898,0.2907,0.2877,0.288,0.2956,0.2963,0.297,0.2978,0.3003,0.3006,0.3007,0.3047,0.3046,0.3045,0,0,0,0,0,0,0.2689,0.2698,0.2782,0.275,0.2762,0.2813,0.2831,0.284,0.2855,0.2907,0.2917,0.2882,0.2957,0.2966,0.2988,0.2982,0.3007,0.301,0.3048,0.3047,0.3046,0.2995,0,0,0,0,0,0,0.2686,0.2697,0.2698,0.2749,0.2763,0.2798,0.283,0.2841,0.2859,0.2864,0.2915,0.2924,0.2958,0.2984,0.2991,0.2986,0.3012,0.3048,0.3047,0.3046,0.2997,0.2992,0.2988,0,0,0,0,0,0.2682,0.2681,0.2698,0.2707,0.2766,0.2797,0.2805,0.2844,0.2858,0.2861,0.2894,0.2922,0.2981,0.2985,0.2994,0.299,0.3049,0.3047,0.3046,0.2999,0.2993,0.2988,0,0,0,0,0,0,0.2629,0.2689,0.2708,0.2724,0.2755,0.2807,0.2811,0.2837,0.2865,0.2869,0.2916,0.2927,0.2945,0.297,0.2973,0.2997,0.3019,0.3019,0.298,0.2975,0.297,0.2964,0.3014,0,0,0,0,0,0.2619,0.2639,0.269,0.2699,0.2714,0.2759,0.2775,0.2802,0.2836,0.285,0.2886,0.2919,0.2945,0.2961,0.2988,0.3001,0.3013,0.3003,0.2998,0.2994,0.2994,0.3002,0.2998,0.3041,0.3041,0.3041,0,0,0.2599,0.2634,0.2644,0.2689,0.2717,0.2737,0.277,0.279,0.2806,0.2854,0.2876,0.2903,0.2944,0.2961,0.297,0.2982,0.2984,0.2992,0.2988,0.2991,0.3,0.2996,0.2993,0.304,0.304,0.304,0,0,0.2572,0.2601,0.2611,0.2637,0.2678,0.2709,0.2711,0.2759,0.2779,0.2802,0.2838,0.2858,0.2902,0.2929,0.2948,0.2931,0.2958,0.2939,0.2914,0.2922,0.2919,0.2916,0.291,0.2907,0.2938,0.2938,0.2938,0,0.2542,0.2573,0.2613,0.2631,0.265,0.2693,0.2704,0.2728,0.2776,0.2788,0.2801,0.2857,0.2887,0.2911,0.2907,0.2921,0.2926,0.2933,0.2916,0.2913,0.2911,0.2906,0.2903,0.2935,0.2936,0.2936,0.2936,0,0.2534,0.2555,0.2559,0.2602,0.2622,0.2636,0.2679,0.2694,0.2719,0.2749,0.2772,0.2809,0.2844,0.2852,0.2878,0.288,0.2886,0.2906,0.2929,0.2904,0.29,0.2898,0.2932,0.2933,0.2933,0.2934,0,0,0.2477,0.2542,0.2543,0.2563,0.2611,0.2628,0.2644,0.2678,0.269,0.2721,0.2736,0.2772,0.2791,0.2813,0.2842,0.2848,0.2832,0.2868,0.287,0.286,0.2836,0.2821,0.2817,0.285,0.2849,0.2849,0.2833,0,0.2458,0.2488,0.2525,0.2543,0.2563,0.2604,0.2618,0.2649,0.2677,0.2698,0.2729,0.2753,0.2777,0.279,0.2799,0.2832,0.2828,0.2834,0.2865,0.2865,0.2853,0.2815,0.2799,0.2782,0.2832,0.2831,0.2831,0,0.2439,0.2467,0.2487,0.2533,0.2542,0.2554,0.2588,0.2607,0.2643,0.2663,0.2687,0.2718,0.2737,0.2757,0.2785,0.2788,0.2803,0.2821,0.2821,0.2826,0.2847,0.2819,0.2777,0.2774,0.2829,0.2829,0.2829,0,0.2395,0.2438,0.2456,0.2472,0.2525,0.2533,0.2555,0.2592,0.261,0.2639,0.2651,0.2683,0.27,0.2724,0.2762,0.2773,0.2786,0.2809,0.2803,0.2802,0.2804,0.2803,0.2764,0.2813,0.2813,0.2813,0.2813,0,0.237,0.238,0.2436,0.2447,0.246,0.2502,0.2514,0.2541,0.2573,0.259,0.2628,0.2643,0.2693,0.2714,0.2744,0.2762,0.277,0.2787,0.2795,0.2783,0.2781,0.2794,0.2796,0.2813,0.2813,0.2813,0.2813,0,0.2323,0.2361,0.2382,0.2431,0.2444,0.2451,0.2493,0.2505,0.2534,0.2555,0.2563,0.2609,0.2636,0.2676,0.2716,0.2736,0.275,0.2763,0.2737,0.2742,0.2733,0.2733,0.2701,0.2699,0.2749,0.2748,0.2748,0,0.2304,0.2313,0.2362,0.2376,0.2397,0.2419,0.2436,0.2478,0.2496,0.2537,0.2544,0.2574,0.2599,0.264,0.2678,0.2708,0.2722,0.2709,0.2727,0.2715,0.2722,0.2721,0.2722,0.2704,0.2704,0.2703,0.2703,0,0.2267,0.2285,0.2309,0.2339,0.2359,0.2385,0.2413,0.2422,0.247,0.2488,0.2515,0.2535,0.2574,0.2603,0.2638,0.2663,0.2691,0.2696,0.2697,0.2685,0.267,0.2678,0.2725,0.2697,0.2698,0.2698,0.2698,0.2698,0.2234,0.2243,0.2279,0.2304,0.2329,0.2354,0.2368,0.2399,0.2422,0.2457,0.248,0.2506,0.2542,0.2592,0.2615,0.2636,0.2648,0.2648,0.2649,0.2648,0.2644,0.2666,0.2643,0.2643,0.2643,0.2643,0.2644,0,0.2198,0.2223,0.2245,0.2283,0.2303,0.2326,0.2358,0.2373,0.2395,0.2426,0.2451,0.2482,0.251,0.2549,0.258,0.259,0.2603,0.2597,0.2596,0.2601,0.2631,0.2628,0.2585,0.2585,0.2585,0.2585,0.2585,0.2585,0.2181,0.2199,0.2221,0.2251,0.2277,0.2302,0.2318,0.2341,0.2366,0.2399,0.2422,0.2447,0.2482,0.2515,0.2542,0.2553,0.2563,0.2552,0.2567,0.2594,0.2599,0.2605,0.2602,0.2554,0.2554,0.2535,0.2535,0.2535]},{"header":{"parameterUnit":"m.s-1","parameterCategory":1,"la1":30.2991,"la2":30.254,"lo1":-89.0895,"lo2":-89.0444,"dy":0.0017,"dx":0.0017,"nx":28,"ny":28,"refTime":"2024-08-27T21:00:00:Z","depth":0,"parameterNumber":3,"parameterNumberName":"V-component_of_WINDS"},"data":[0,0,0,0,0,0,0,0,0,0,0,0,0,0,0,0,0,0,0,0,0,0,0,0,0,0,0,0,0,0,0,0,0,0,0,0,0,0,0,0,0,0,0,0,0,0,0,0,0,0,0,0,0,0,0,0,0,0,1.0656,1.0656,0,1.0626,1.0625,1.0625,1.0653,1.0654,1.0655,1.0656,1.0623,1.0622,1.062,0,0,0,0,0,0,0,0,0,0,0,0,0,1.0738,1.0736,1.0656,1.0656,1.0656,1.0626,1.0625,1.0625,1.0652,1.0654,1.0655,1.0656,1.0624,1.0622,1.062,0,0,0,0,0,0,0,0,0,0,0,0,0,1.0704,1.0735,1.0657,1.0666,1.0666,1.0626,1.0625,1.0625,1.0652,1.0654,1.0655,1.0657,1.0625,1.0622,1.0619,1.0568,0,0,1.0611,1.0609,0,0,0,0,0,0,0,0,1.0706,1.0701,1.0665,1.0665,1.0666,1.0645,1.0642,1.0606,1.0652,1.0657,1.0656,1.0658,1.0629,1.0626,1.0617,1.0567,1.0565,1.061,1.0609,1.0607,1.0607,0,0,0,0,0,0,0,1.0708,1.0703,1.0644,1.0664,1.0665,1.0671,1.0668,1.0635,1.0634,1.0657,1.0659,1.0655,1.063,1.0619,1.0616,1.0565,1.061,1.0608,1.0606,1.0605,1.047,1.0469,0,0,0,0,0,0,1.071,1.0704,1.0645,1.0643,1.069,1.0668,1.0665,1.065,1.0635,1.0634,1.0654,1.0656,1.0623,1.0619,1.0615,1.0553,1.0607,1.0605,1.0603,1.0472,1.047,1.0468,0,0,0,0,0,0,1.0711,1.0704,1.0647,1.0674,1.0668,1.0665,1.0648,1.0648,1.0638,1.0632,1.0632,1.0643,1.0624,1.0619,1.0579,1.0553,1.0603,1.0601,1.0474,1.0472,1.0469,1.043,0,0,0,0,0,0,1.0714,1.0705,1.0685,1.0674,1.0666,1.0611,1.0646,1.0646,1.0633,1.0636,1.0622,1.0622,1.0625,1.0584,1.0577,1.055,1.0599,1.0477,1.0473,1.047,1.0433,1.0426,1.042,0,0,0,0,0,1.0716,1.0675,1.0684,1.0677,1.0642,1.061,1.0605,1.0611,1.0631,1.0611,1.0607,1.0622,1.0557,1.0579,1.0572,1.0543,1.0479,1.0474,1.047,1.0437,1.0427,1.042,0,0,0,0,0,0,1.0683,1.0674,1.0684,1.0638,1.0624,1.0615,1.059,1.0601,1.0582,1.0586,1.0593,1.059,1.0548,1.0542,1.0567,1.0493,1.0521,1.0515,1.0498,1.0489,1.0482,1.0484,1.0596,0,0,0,0,0,1.0671,1.0646,1.0639,1.0599,1.0592,1.0592,1.0579,1.0584,1.057,1.0565,1.0558,1.0544,1.0521,1.0505,1.0483,1.0433,1.043,1.041,1.0403,1.0398,1.0392,1.0365,1.0355,1.0454,1.0454,1.0454,0,0,1.0645,1.0636,1.062,1.0593,1.0583,1.0557,1.0587,1.0558,1.0539,1.056,1.0522,1.0517,1.0502,1.0457,1.0437,1.0451,1.0364,1.0392,1.0388,1.0385,1.0359,1.035,1.0342,1.0451,1.0452,1.0452,0,0,1.0583,1.0575,1.054,1.053,1.0515,1.0515,1.0507,1.0496,1.0493,1.0455,1.0471,1.0448,1.0407,1.0395,1.0384,1.0318,1.0331,1.0311,1.0274,1.0248,1.024,1.0233,1.0208,1.02,1.0306,1.0306,1.0306,0,1.0552,1.0513,1.0521,1.0491,1.0478,1.0497,1.0462,1.0451,1.043,1.042,1.0436,1.0386,1.0377,1.0329,1.0313,1.0304,1.0294,1.0312,1.024,1.0234,1.0227,1.0204,1.0195,1.0303,1.0304,1.0304,1.0304,0,1.0475,1.0448,1.0422,1.0401,1.0386,1.0353,1.0355,1.0339,1.0346,1.0344,1.0305,1.0295,1.0271,1.0261,1.0267,1.0214,1.0223,1.0239,1.0268,1.0215,1.0193,1.0185,1.03,1.0301,1.0301,1.0302,0,0,1.0391,1.0375,1.0365,1.0356,1.0341,1.032,1.0288,1.0265,1.025,1.0235,1.0208,1.0173,1.0189,1.0176,1.0182,1.0158,1.0106,1.0178,1.0178,1.0164,1.0045,1.0032,1.0021,1.0114,1.0113,1.0111,1.0046,0,1.0328,1.0273,1.0279,1.0226,1.0201,1.0219,1.0191,1.0179,1.0177,1.0155,1.0153,1.0128,1.015,1.0143,1.012,1.0117,1.0082,1.0122,1.0089,1.0087,1.0091,1.001,0.9996,0.9934,1.0038,1.0036,1.0035,0,1.0247,1.0229,1.0174,1.0162,1.0152,1.0127,1.0106,1.0085,1.0072,1.0072,1.0058,1.0067,1.0035,1.0065,1.002,1.0047,1.0034,1.003,1.0028,1.0024,1.0057,1.0003,0.9915,0.9905,1.0022,1.0023,1.0024,0,1.019,1.0152,1.0114,1.0105,1.0091,1.0073,1.0067,1.0055,1.004,1.0022,1.0013,0.9991,0.9979,0.9962,0.9965,0.9987,0.9919,0.995,0.9918,0.9917,0.9902,0.9902,0.9809,0.9895,0.9895,0.9895,0.9896,0,1.0118,1.0083,1.0088,1.0064,1.0026,1.0033,0.9995,0.999,0.998,0.9955,0.997,0.9946,0.9953,0.993,0.9932,0.9894,0.9889,0.9888,0.9889,0.9886,0.9886,0.9876,0.988,0.9893,0.9894,0.9894,0.9894,0,1.0047,1.0049,1.0008,0.9999,0.9995,0.9967,0.9959,0.9937,0.9936,0.9905,0.9898,0.9897,0.987,0.9872,0.9843,0.9844,0.9797,0.9804,0.9802,0.9803,0.977,0.9773,0.9667,0.9653,0.9749,0.9748,0.9747,0,1.0,0.9974,0.9962,0.9947,0.9939,0.9914,0.99,0.9906,0.9891,0.9873,0.9853,0.9828,0.9808,0.9765,0.9761,0.9738,0.9743,0.9708,0.974,0.9738,0.9742,0.9743,0.974,0.9701,0.97,0.9699,0.9699,0,0.9917,0.9919,0.9898,0.9877,0.9859,0.9843,0.9828,0.9815,0.982,0.9801,0.9775,0.9759,0.9729,0.9704,0.9682,0.9675,0.9687,0.9689,0.968,0.9676,0.9676,0.9674,0.9783,0.9691,0.9691,0.9692,0.9692,0.9693,0.9856,0.9834,0.9821,0.9797,0.9787,0.9772,0.9751,0.9748,0.9726,0.9701,0.9707,0.9676,0.9663,0.9636,0.9626,0.9603,0.9615,0.9603,0.96,0.9596,0.9592,0.968,0.9599,0.9599,0.9599,0.96,0.96,0,0.9773,0.9766,0.9744,0.9723,0.9704,0.9718,0.9702,0.9685,0.9658,0.9645,0.9625,0.9594,0.957,0.9564,0.9541,0.9523,0.9528,0.9516,0.9517,0.9515,0.9582,0.9592,0.9513,0.9513,0.9513,0.9513,0.9513,0.9513,0.9728,0.969,0.969,0.9647,0.9641,0.9611,0.9601,0.9588,0.9577,0.9542,0.9522,0.9519,0.9509,0.9485,0.9463,0.9462,0.9452,0.9438,0.9439,0.9502,0.951,0.9519,0.9528,0.9436,0.9436,0.9374,0.9373,0.9373]}]]